Lid_Strength_Index
2 4 6 5 10 11 14 12 9 10 10 7 6 8 9 8 10 12 3 3 3 3 2 1 -0 -0 -1 -0 -1 -1 -1 -1 -1 -1 -0 -0 0 0 0 0 0 0 -1 -1 -0 0 -0 -0 -0
3 4 6 8 12 16 15 10 11 9 7 6 6 7 8 9 5 4 3 3 3 4 3 1 -0 0 -0 -0 0 0 0 0 0 1 1 1 1 1 1 0 -0 -0 -1 -1 -2 -1 -0 -1 -1
4 5 9 9 12 15 14 10 9 8 6 7 8 6 7 8 4 4 3 4 3 4 2 2 0 -0 -0 -0 -0 -0 0 0 1 1 1 1 1 1 0 1 -0 -0 -1 -1 -1 -1 -1 -1 -1
8 8 8 11 14 13 11 11 8 8 6 6 7 9 5 3 3 3 2 2 3 4 3 2 1 1 1 0 0 0 0 -0 -0 -0 -0 0 0 0 0 0 1 0 -0 -0 -1 -1 -1 -1 -1
8 9 11 14 14 13 12 10 9 8 8 7 7 9 7 3 2 2 2 3 3 3 3 3 2 1 1 1 0 -0 -0 -0 -0 -0 -0 -0 0 0 0 0 0 -0 -0 -0 -1 -0 -0 -0 -0
8 9 13 15 14 12 12 10 9 8 8 7 7 8 7 2 3 3 2 3 2 4 4 4 3 1 0 1 1 1 0 0 0 0 0 0 0 0 0 0 1 0 -0 -0 -0 -0 -0 -0 -0
9 10 13 13 13 13 12 11 11 10 8 8 6 9 6 4 2 3 2 2 4 5 5 5 4 3 2 2 1 1 1 1 1 1 1 1 1 1 1 1 1 1 1 0 0 0 0 0 0
10 9 13 13 13 14 12 11 8 8 8 5 5 9 9 4 2 2 4 4 5 5 6 6 6 6 6 5 1 2 1 2 1 3 4 3 3 3 3 4 3 2 1 1 1 1 1 0 1
8 11 14 14 13 13 12 11 8 7 7 6 6 6 4 2 1 4 5 5 6 6 8 8 8 7 7 6 5 4 3 3 4 6 6 7 7 8 8 6 5 5 4 4 3 3 3 3 3
10 13 14 13 14 14 12 12 11 10 8 8 7 4 3 2 4 4 5 7 8 8 9 9 9 9 9 7 8 8 7 7 8 10 10 9 9 10 9 9 7 6 6 6 5 6 6 7 9
11 13 12 12 12 12 12 12 11 12 12 8 8 6 4 4 4 4 7 8 8 9 10 10 11 10 11 10 10 11 10 11 10 11 12 11 11 12 12 13 12 12 9 11 11 11 11 11 10
13 11 11 11 11 12 13 12 13 12 11 7 6 4 5 5 5 7 8 9 9 10 11 11 12 12 12 11 12 12 12 12 12 12 12 13 13 14 14 14 14 13 12 13 14 13 12 12 11
13 12 11 12 11 12 12 13 13 13 10 7 6 5 6 6 8 8 8 9 10 11 12 13 13 13 12 13 13 13 13 13 13 13 12 13 14 14 14 14 14 14 13 14 14 14 13 13 12
12 12 12 12 12 11 13 13 13 13 12 8 6 7 7 7 8 9 9 11 12 12 13 13 13 13 13 14 14 14 14 14 13 13 13 13 14 14 14 15 14 14 14 13 14 14 14 13 13
12 13 12 12 11 12 13 14 14 12 8 8 7 7 7 8 9 10 11 12 13 13 13 13 14 13 14 14 14 14 14 13 14 14 13 13 13 14 15 15 14 14 13 13 13 13 13 14 13
12 12 15 12 12 12 13 16 12 12 10 10 9 8 8 8 9 10 11 12 13 14 14 14 13 14 14 15 14 14 14 14 14 14 14 13 13 13 14 14 14 13 13 13 14 14 14 14 14
14 18 15 14 12 14 14 16 13 13 12 13 12 10 9 9 10 11 12 13 14 15 15 15 15 15 15 15 15 15 15 15 15 15 14 13 13 12 14 14 14 13 14 14 14 14 14 15 14
18 18 16 17 15 15 16 16 14 14 13 13 13 12 10 10 10 11 13 13 14 15 15 15 15 15 15 15 16 16 16 15 15 15 14 13 13 13 13 14 14 14 14 14 14 14 14 14 14
16 18 18 16 15 16 18 17 15 14 14 15 14 13 12 10 10 11 13 14 15 15 15 15 16 16 16 17 17 17 17 16 16 15 13 13 13 13 14 14 14 14 14 14 14 14 15 15 14
16 18 19 17 15 17 17 16 15 15 16 16 16 15 14 11 12 13 14 15 15 15 15 16 16 16 16 16 16 17 17 17 16 15 15 14 14 14 14 14 14 14 14 14 14 14 15 14 14
18 19 20 19 17 16 18 18 15 15 15 15 15 15 14 12 12 14 14 15 16 16 16 16 16 16 16 16 16 16 16 17 17 16 15 15 14 14 14 14 14 14 14 14 14 14 15 15 14
19 17 18 18 20 22 18 21 18 16 16 16 15 16 15 15 12 13 14 15 15 16 16 16 16 16 15 16 16 18 19 18 17 17 16 16 15 15 14 14 14 14 14 14 14 13 14 15 16
18 17 18 19 21 21 20 23 18 16 17 17 16 16 17 15 14 14 14 14 16 17 17 17 16 16 16 17 17 18 19 18 17 17 17 16 16 15 15 14 14 14 14 15 15 14 14 14 15
16 18 18 19 21 24 24 23 19 17 17 17 17 17 17 17 16 16 16 16 17 17 17 17 16 17 17 17 18 18 19 19 19 18 18 17 17 16 15 15 15 15 15 15 15 14 14 14 14
18 19 24 22 23 21 28 23 19 16 18 17 17 18 18 17 17 17 17 18 18 18 18 17 18 18 18 18 18 18 18 19 19 18 18 18 18 17 16 16 16 16 16 15 15 14 14 13 13
19 20 23 26 24 22 27 23 18 17 17 17 17 17 17 18 18 18 18 18 18 19 19 19 19 19 19 19 19 18 18 18 18 18 18 18 17 17 16 17 17 16 16 15 14 14 13 12 12
19 22 20 26 32 27 22 19 16 18 18 18 18 18 18 19 18 19 19 19 19 20 20 20 20 19 19 19 19 19 19 19 19 19 18 18 17 17 17 17 18 17 16 14 14 14 14 13 13
19 19 22 23 26 26 23 23 19 20 21 20 18 18 19 20 20 20 20 20 20 20 20 20 20 20 20 20 20 20 19 19 19 19 19 19 19 18 19 18 17 16 15 14 14 14 14 14 13
22 22 22 21 21 26 27 22 18 19 19 20 21 18 24 24 21 21 21 21 20 20 20 21 21 20 20 20 20 20 20 20 19 19 19 19 19 19 19 18 16 15 15 14 15 14 14 14 13
20 19 20 23 24 24 24 23 19 21 21 22 20 20 22 25 23 22 22 21 21 21 21 22 21 21 21 21 21 20 20 20 20 20 20 20 20 19 18 17 16 15 15 15 15 15 14 13 14